Location: Crescent
(42.8242°N, 73.7329°W)
Time: 03:38:30
(UTC+00:00)

Vanguard 3 - Pass Details

Date: 20 February 2026
Orbit: 507 x 3205 km, 33.4° (Epoch: 6 March)

Event Time Altitude Azimuth Distance (km) Brightness Sun altitude
Rises 01:05:07 0° 264° (W) 3,700 11.6 -28.7°
Reaches altitude 10° 01:09:14 10° 243° (WSW) 2,310 10.0 -29.4°
Enters shadow 01:11:57 15° 211° (SSW) 1,760 9.0 -29.9°
